Telluride, CO

2:06 AM MDT on June 24, 2018 (GMT -0600)
Telluride Regional

Weather History for KTEX - October, 2017

Change the Weather History Date:

Monday, October 30, 2017

  Actual Average Record
Temperature  
Mean Temperature 48 °F -  
Max Temperature 57 °F 43 °F 62 °F (2014)
Min Temperature 39 °F 27 °F 14 °F (2004)
Degree Days  
Heating Degree Days 16    
Moisture  
Dew Point 24 °F    
Average Humidity 36    
Maximum Humidity 83    
Minimum Humidity 26    
Precipitation  
Precipitation 0.00 in - - ()
Sea Level Pressure  
Sea Level Pressure 30.05 in    
Wind  
Wind Speed 6 mph (West)    
Max Wind Speed 15 mph    
Max Gust Speed 31 mph    
Visibility 10 miles    
Events Rain    
Averages and records for this station are not official NWS values.
T = Trace of Precipitation, MM = Missing Value Source: NWS Daily Summary

Daily Weather History Graph

Daily Weather History Graph

Search for Another Location

Airport or City:

Astronomy

Oct. 30, 2017 Rise Set
Actual Time 7:35 AM MDT 6:14 PM MDT
Civil Twilight 7:08 AM MDT 6:41 PM MDT
Nautical Twilight 6:37 AM MDT 7:12 PM MDT
Astronomical Twilight 6:06 AM MDT 7:43 PM MDT
Moon 3:59 PM MDT (10/30) 2:28 AM MDT (10/30)
Length of Visible Light 11h 33m
Length of Day
10h 38m
Waxing Gibbous, 77% of the Moon is Illuminated
Oct 30
Waxing Gibbous
Nov 3
Full
Nov 10
Last Quarter
Nov 18
New
Nov 26
First Quarter

Hourly Weather History & Observations

Time (MDT) Temp. Windchill Dew Point Humidity Pressure Visibility Wind Dir Wind Speed Gust Speed Precip Events Conditions
8:55 AM - - - N/A% 30.12 in 10.0 mi SE 3.5 mph - N/A   Clear
10:55 AM - - - N/A% 30.10 in 10.0 mi Calm Calm - N/A   Clear
11:15 AM 51.6 °F - 19.0 °F 28% 30.10 in 10.0 mi WNW 3.5 mph - N/A   Clear
11:35 AM 52.2 °F - 19.2 °F 27% 30.10 in 10.0 mi SW 4.6 mph - N/A   Clear
11:55 AM 53.4 °F - 20.1 °F 27% 30.10 in 10.0 mi West 4.6 mph - N/A   Clear
12:15 PM 54.1 °F - 20.8 °F 27% 30.09 in 10.0 mi West 9.2 mph - N/A   Clear
12:35 PM 55.0 °F - 21.2 °F 27% 30.08 in 10.0 mi West 9.2 mph - N/A   Clear
12:55 PM 55.4 °F - 21.4 °F 27% 30.07 in 10.0 mi West 9.2 mph - N/A   Clear
1:15 PM 56.5 °F - 21.9 °F 26% 30.06 in 10.0 mi West 11.5 mph 16.1 mph N/A   Clear
1:35 PM 55.9 °F - 22.3 °F 27% 30.05 in 10.0 mi West 8.1 mph - N/A   Clear
1:55 PM 56.7 °F - 23.0 °F 27% 30.04 in 10.0 mi WNW 4.6 mph - N/A   Clear
2:15 PM 57.0 °F - 22.3 °F 26% 30.03 in 10.0 mi West 6.9 mph 19.6 mph N/A   Scattered Clouds
2:35 PM 57.6 °F - 22.8 °F 26% 30.03 in 10.0 mi West 15.0 mph 18.4 mph N/A   Overcast
2:55 PM 56.5 °F - 22.8 °F 27% 30.02 in 10.0 mi West 6.9 mph 16.1 mph N/A   Overcast
3:15 PM 55.6 °F - 23.0 °F 28% 30.02 in 10.0 mi West 15.0 mph - N/A   Overcast
3:35 PM 54.9 °F - 23.5 °F 30% 30.02 in 10.0 mi WNW 10.4 mph 16.1 mph N/A   Overcast
3:55 PM 53.8 °F - 23.5 °F 31% 30.02 in 10.0 mi WNW 5.8 mph - N/A   Overcast
4:15 PM 52.9 °F - 23.5 °F 32% 30.02 in 10.0 mi NW 8.1 mph - N/A   Overcast
4:35 PM 53.1 °F - 23.9 °F 32% 30.02 in 10.0 mi WNW 5.8 mph - N/A   Overcast
4:55 PM 52.7 °F - 23.9 °F 33% 30.02 in 10.0 mi North 4.6 mph - N/A   Overcast
5:15 PM 52.2 °F - 24.1 °F 34% 30.02 in 10.0 mi NW 3.5 mph - N/A   Mostly Cloudy
5:35 PM 51.8 °F - 23.9 °F 34% 30.02 in 10.0 mi West 5.8 mph - N/A   Scattered Clouds
5:55 PM - - - N/A% 30.02 in 10.0 mi WNW 8.1 mph - N/A   Scattered Clouds
6:55 PM 49.5 °F - 23.5 °F 36% 30.03 in 10.0 mi Calm Calm - N/A   Overcast
7:35 PM 48.9 °F - 23.5 °F 37% 30.03 in 10.0 mi Calm Calm - N/A   Mostly Cloudy
7:55 PM 48.4 °F - 23.7 °F 38% 30.03 in 10.0 mi SE 4.6 mph - N/A   Mostly Cloudy
8:15 PM 48.2 °F - 23.9 °F 39% 30.03 in 10.0 mi SE 5.8 mph - N/A   Mostly Cloudy
8:35 PM 47.7 °F - 24.1 °F 40% 30.04 in 10.0 mi Calm Calm - N/A   Mostly Cloudy
8:55 PM 47.5 °F - 24.3 °F 40% 30.04 in 10.0 mi Calm Calm - N/A   Mostly Cloudy
9:15 PM 46.9 °F - 24.8 °F 42% 30.04 in 10.0 mi Calm Calm - N/A   Overcast
9:55 PM - - - N/A% 30.05 in 10.0 mi SW 11.5 mph 19.6 mph N/A   Overcast
10:55 PM 45.1 °F 38.4 °F 29.3 °F 54% 30.07 in 10.0 mi SW 15.0 mph 31.1 mph N/A   Overcast
11:15 PM 42.6 °F 35.9 °F 32.4 °F 67% 30.08 in 10.0 mi West 12.7 mph 27.6 mph N/A   Drizzle
11:35 PM 40.1 °F 32.4 °F 34.2 °F 79% 30.09 in 10.0 mi West 13.8 mph 19.6 mph N/A Rain Rain
11:55 PM 39.6 °F 37.4 °F 34.7 °F 83% 30.09 in 10.0 mi NW 3.5 mph - N/A   Light Drizzle